RH
20 20 20 19 22 18 17 29 34 48 35 43 43 50 53 63 68 64 48 45 26 35 44 20 7 9 12 28 24 17 10 43 57 68 69 22 17 18 17 17 16 16 15 14 12 15 18 19 20
20 19 19 22 20 15 14 28 24 39 46 49 48 52 51 63 51 56 55 52 32 36 48 35 6 6 18 29 29 20 10 37 59 63 52 37 20 17 15 14 13 14 13 12 12 16 18 20 19
19 18 20 20 18 14 20 30 42 38 45 48 51 56 57 48 45 56 59 37 23 36 47 45 15 5 15 35 34 28 9 17 44 60 63 56 26 18 16 15 14 13 12 11 13 17 17 20 19
19 18 19 20 17 16 21 32 22 39 49 53 51 56 38 38 41 45 32 26 24 39 48 48 34 10 7 29 44 23 8 6 9 33 54 55 35 21 17 16 16 16 14 11 13 18 17 20 20
20 16 16 16 15 21 22 19 20 27 40 43 44 47 59 40 39 37 35 20 25 40 46 48 46 28 11 9 31 45 30 7 5 6 19 31 30 19 19 16 15 16 14 12 14 18 16 21 22
16 16 15 14 14 19 18 18 20 25 26 39 46 41 54 36 42 40 40 24 20 30 47 50 42 38 27 12 10 21 36 26 7 6 10 23 23 18 18 16 15 15 14 12 13 18 16 20 24
16 15 15 13 14 20 17 16 18 21 25 24 31 38 48 39 44 44 44 35 22 23 31 49 48 39 32 24 14 12 21 28 9 10 17 20 23 19 15 12 12 15 14 13 13 17 16 20 25
14 13 13 12 13 14 14 14 13 22 30 36 34 53 79 55 34 47 48 43 35 23 25 34 43 44 38 29 21 14 15 18 10 11 19 19 17 9 7 7 9 13 15 14 13 17 16 19 26
12 12 11 11 11 12 13 12 13 32 44 60 88 65 77 52 34 47 48 51 48 41 27 25 27 38 42 35 29 20 15 15 14 12 10 10 8 7 7 7 8 12 15 14 13 17 16 19 26
9 10 10 10 10 12 12 12 14 21 59 66 64 38 46 36 50 50 51 50 56 56 47 31 28 32 41 40 37 31 23 18 21 21 16 10 8 8 8 7 8 12 15 15 14 16 16 18 26
8 8 11 14 10 11 10 25 14 23 44 56 40 40 24 29 37 47 57 58 60 65 68 52 38 32 33 46 42 39 34 28 23 26 27 22 14 8 8 8 9 11 15 16 14 16 16 18 24
10 13 15 18 4 12 11 18 10 12 28 33 48 49 33 44 63 59 62 62 58 69 80 79 60 47 39 46 44 41 40 36 28 26 25 28 25 10 9 9 9 10 14 17 14 15 17 18 22
13 18 12 8 7 8 14 16 22 8 13 26 42 54 50 33 53 89 92 77 74 81 81 89 86 70 54 45 46 41 41 38 34 28 23 27 33 20 12 11 11 10 12 17 15 16 17 18 21
24 22 17 16 17 9 15 29 23 10 9 10 21 50 58 52 50 59 56 67 87 96 81 95 96 89 77 60 47 49 42 41 36 32 28 27 33 32 18 15 13 12 13 18 18 17 17 18 19
20 17 18 18 17 17 18 30 39 9 10 10 12 19 60 59 61 52 49 65 72 80 57 83 90 98 89 81 59 50 50 44 41 36 31 29 28 34 34 23 17 13 14 18 19 19 17 19 19
22 22 19 20 18 17 14 17 30 15 13 12 11 16 38 63 59 57 54 59 67 67 56 57 91 91 93 90 64 64 55 50 44 39 36 31 29 30 37 40 24 17 15 20 21 20 20 21 20
15 14 16 20 19 18 17 30 38 23 17 17 15 18 25 56 66 58 54 58 61 64 61 70 70 84 95 85 80 64 63 60 52 46 39 34 31 31 34 46 29 17 16 21 25 25 23 23 21
9 9 11 14 21 20 16 27 51 24 21 22 22 18 26 37 59 61 56 57 58 58 64 62 74 80 96 99 87 84 73 71 65 55 46 42 41 34 35 45 44 20 17 19 30 35 30 23 23
14 13 10 11 19 20 15 20 43 45 24 42 44 25 21 26 35 50 56 55 55 56 58 58 77 80 75 75 98 95 89 85 86 69 62 50 40 35 34 41 48 30 19 18 28 44 41 30 26
20 15 13 20 22 22 11 18 24 49 48 29 25 25 20 24 39 49 48 49 56 58 57 62 64 64 77 88 91 95 99 97 98 96 73 66 49 38 35 38 39 58 39 21 20 32 55 53 37
28 28 28 27 28 24 19 14 13 49 53 41 10 9 14 18 23 49 59 62 58 66 70 68 62 64 74 80 88 77 72 78 70 80 88 92 64 52 44 40 36 37 65 56 22 21 39 61 64
28 45 40 34 29 16 20 15 11 34 53 51 55 16 8 6 10 17 35 52 61 71 75 80 71 74 73 81 72 65 52 55 38 49 96 86 97 91 75 46 42 40 39 52 24 22 20 33 47
40 46 39 37 33 28 20 20 17 26 40 47 66 31 14 8 6 5 7 18 32 48 63 78 84 80 82 82 79 72 88 56 62 38 56 68 90 97 89 85 52 45 42 45 30 23 21 21 24
47 43 41 39 37 32 25 21 16 31 53 66 54 28 18 14 11 8 7 5 6 16 30 37 59 79 81 86 89 92 86 79 73 54 52 73 73 88 94 87 81 55 51 52 38 32 28 24 22
42 38 34 33 31 30 26 25 52 46 42 38 28 23 19 17 16 14 12 9 7 5 6 14 23 41 75 86 87 89 85 96 93 76 86 64 88 98 93 97 87 74 58 54 43 42 36 34 35
47 46 39 40 23 20 28 28 38 36 35 37 27 23 23 24 23 19 15 12 9 7 6 5 6 16 30 68 82 85 92 92 81 81 64 71 89 84 99 98 95 92 78 64 54 51 49 50 54
66 59 59 57 42 38 26 50 58 49 40 40 36 36 36 36 33 32 30 24 18 12 8 6 5 4 13 28 50 79 100 83 80 83 53 64 79 98 99 99 97 98 91 90 69 62 68 77 79
62 54 60 77 59 37 23 27 91 98 73 64 51 50 44 38 37 35 29 26 25 22 18 9 6 6 4 10 28 59 96 81 69 85 60 65 70 91 99 98 99 100 98 97 92 87 75 97 98
67 60 60 60 59 56 57 58 80 85 84 82 91 91 68 65 48 37 35 33 30 26 21 18 11 8 6 4 13 36 54 64 61 70 81 74 86 90 92 99 99 96 99 95 100 100 98 98 97
72 73 66 66 65 81 85 64 93 77 83 85 84 89 97 100 92 60 60 49 44 37 28 22 19 14 9 6 8 31 83 79 53 62 63 73 78 94 100 83 82 89 74 77 98 95 99 100 99
Wind_Speed
16 14 10 7 7 9 14 6 8 4 9 7 8 5 3 6 3 3 4 5 8 11 12 13 16 17 17 18 16 15 14 14 13 15 14 11 8 8 8 7 5 6 4 9 8 6 7 10 11
13 12 8 7 15 21 9 6 6 9 12 12 6 6 4 5 10 6 4 10 9 12 13 11 12 16 16 16 16 15 15 14 13 13 12 9 7 6 6 6 5 6 5 6 10 6 6 8 10
9 9 6 14 19 23 4 4 8 9 3 8 5 3 2 4 6 8 4 8 14 15 13 12 11 13 15 17 16 14 14 14 13 12 10 8 6 6 5 6 5 5 5 6 9 6 6 6 8
8 6 10 13 19 9 2 7 6 6 3 7 3 2 5 5 5 8 6 10 14 17 12 12 11 11 12 15 16 15 13 14 14 13 10 7 5 6 5 4 5 5 5 7 6 6 5 5 6
8 7 17 18 21 7 6 4 2 6 4 3 2 2 8 6 4 9 7 10 15 17 18 13 11 10 11 11 12 13 12 12 13 12 12 9 6 6 4 3 4 5 4 6 7 5 5 5 4
10 10 19 23 22 8 8 3 6 6 6 6 5 5 12 8 3 9 7 14 15 15 17 17 16 13 11 12 11 10 9 9 9 9 10 10 8 6 5 4 3 4 5 5 6 6 5 4 4
12 16 20 22 7 4 12 5 7 7 7 6 8 3 13 12 7 9 9 12 14 17 16 15 15 16 14 12 11 10 8 8 7 7 8 9 8 6 5 5 4 4 5 6 6 6 5 4 3
14 15 19 22 16 8 11 3 5 6 6 16 12 1 6 17 11 12 13 11 11 14 16 15 14 14 14 13 12 11 10 8 8 7 7 8 7 6 6 4 5 5 6 6 6 6 6 4 4
12 14 18 20 16 5 5 8 3 8 7 5 5 18 15 15 14 15 17 16 15 15 15 15 14 13 14 14 13 12 11 11 9 8 8 8 7 7 5 5 5 6 7 7 7 6 6 6 5
10 13 6 3 8 4 2 7 6 3 16 16 15 19 25 17 14 18 17 20 19 16 14 15 15 14 12 13 12 12 11 10 9 8 8 9 8 6 6 6 6 7 8 8 8 8 7 7 6
9 13 3 2 15 7 7 4 13 14 12 19 20 13 28 22 15 19 18 22 18 17 14 14 15 15 14 14 12 12 10 10 10 10 10 8 9 8 8 7 7 8 9 10 10 10 9 8 7
9 10 6 7 14 5 8 9 14 20 20 18 17 18 22 20 12 18 22 24 23 18 15 16 16 15 14 13 13 13 12 11 10 10 10 9 9 10 9 9 7 9 10 10 12 12 10 10 9
9 11 11 17 12 10 7 6 13 18 19 19 17 16 19 27 22 17 21 21 22 19 15 18 16 17 16 15 15 13 13 13 12 12 11 11 10 11 11 10 9 9 10 12 14 13 12 12 10
12 9 7 7 7 13 8 8 8 17 19 20 19 16 19 26 28 23 25 26 27 24 17 17 17 19 18 16 16 16 14 15 13 13 12 12 12 11 12 11 11 11 11 13 15 15 13 13 11
9 7 6 5 8 10 12 8 10 21 20 22 22 18 19 24 27 27 29 29 29 27 19 20 18 20 20 19 19 16 15 17 16 16 14 13 13 13 14 13 14 13 13 13 16 15 14 14 13
10 13 15 9 6 12 11 12 22 21 22 24 25 22 22 25 31 29 28 28 28 28 27 27 22 20 20 20 21 20 20 19 17 17 15 14 14 15 14 15 15 14 14 15 17 16 15 15 14
13 18 19 8 11 10 11 9 15 19 22 21 24 25 24 26 30 32 31 33 31 31 30 28 30 30 24 20 22 24 22 21 21 20 17 18 15 15 14 19 16 14 15 18 18 18 17 17 17
11 14 11 13 5 4 12 15 7 15 20 19 21 25 25 27 30 33 34 34 33 32 31 32 31 30 16 22 23 25 25 23 24 22 22 20 17 16 17 20 17 16 18 20 20 21 20 20 20
3 7 9 8 9 9 13 14 12 10 13 10 11 22 29 31 32 33 37 36 36 35 35 34 31 28 25 26 29 32 30 25 24 22 23 23 20 18 19 20 20 16 19 20 22 22 22 22 21
3 6 10 10 9 8 13 15 18 9 8 16 19 23 29 31 33 33 36 38 39 40 39 36 36 34 33 31 30 27 22 34 21 20 30 28 22 22 21 20 20 20 21 22 22 23 23 22 21
4 4 5 9 12 15 16 21 20 18 11 8 18 24 27 31 34 35 35 36 40 42 40 40 40 40 37 34 30 31 23 23 25 28 26 32 25 25 22 20 21 22 25 24 23 23 24 24 22
8 3 7 11 13 14 9 18 14 22 11 5 4 15 22 26 31 35 38 37 39 42 43 41 42 42 42 38 34 35 30 27 24 23 24 29 21 23 25 23 23 23 24 27 25 25 26 27 27
5 10 12 13 16 17 24 20 22 19 14 12 6 13 18 22 26 27 32 37 39 40 42 44 42 44 44 43 39 39 39 36 29 26 23 28 25 29 24 27 27 26 26 28 27 27 26 26 27
9 12 15 17 16 18 26 26 27 13 14 10 17 17 21 22 24 28 30 31 36 40 43 41 43 46 46 44 42 42 48 43 38 31 30 26 27 28 34 34 33 29 27 30 29 27 25 26 26
10 9 10 10 11 12 5 8 2 11 13 20 24 23 25 24 25 26 29 33 35 37 39 43 42 43 46 46 47 45 45 39 40 33 30 30 32 29 35 35 36 37 28 30 31 30 29 28 27
5 6 8 7 8 9 4 8 12 18 21 22 21 23 24 27 27 28 28 31 35 37 40 40 40 44 44 47 45 44 45 46 39 35 34 33 36 36 34 37 38 39 34 33 33 33 30 29 27
2 3 5 11 18 14 17 6 8 16 24 25 24 23 25 27 29 30 30 29 30 35 40 43 41 40 46 46 46 44 42 38 42 34 36 32 32 35 28 37 37 43 45 43 38 35 34 33 30
1 5 6 7 6 14 16 17 5 8 12 18 22 26 32 37 38 38 39 37 36 35 38 43 45 44 41 47 47 46 39 39 39 37 38 34 32 30 32 37 38 42 45 40 36 41 40 39 43
2 6 7 12 15 10 13 8 8 14 16 19 20 24 34 35 36 39 40 40 39 40 39 43 43 45 46 42 47 41 45 42 37 37 36 33 36 36 36 36 31 20 30 29 41 45 44 47 42
5 4 6 7 7 13 15 22 9 11 14 20 22 21 22 25 27 27 30 30 32 36 40 42 44 43 45 43 43 41 43 38 38 36 39 34 34 32 33 28 13 31 30 28 21 38 38 46 46
Wind_Direction
256 258 268 267 241 240 240 182 236 261 133 121 128 87 73 123 141 184 154 328 258 192 188 177 169 162 155 150 150 148 149 145 146 148 143 130 130 118 110 103 105 110 106 109 112 100 82 77 66
253 251 253 233 247 240 233 166 215 153 115 119 125 77 67 253 245 236 225 189 228 198 183 178 171 160 154 149 151 151 155 154 157 157 155 140 135 119 111 108 102 103 102 110 119 108 83 77 77
244 240 238 238 239 257 100 165 152 86 99 95 103 99 95 307 279 247 231 186 176 192 187 170 168 165 156 151 151 154 156 161 168 168 167 162 147 125 127 111 96 96 107 119 121 114 90 77 77
224 254 238 232 240 243 9 186 114 148 122 118 132 171 306 315 332 170 175 172 183 172 185 169 163 162 158 157 155 155 159 164 171 175 174 178 169 156 140 122 111 106 123 126 127 121 97 83 81
208 215 241 233 238 158 218 148 142 161 196 196 196 307 263 293 313 169 136 161 175 175 176 178 167 159 158 161 165 165 164 168 173 178 179 182 189 180 146 151 131 126 142 139 144 137 113 99 76
231 233 242 239 232 164 183 200 158 182 205 221 235 237 269 285 254 202 166 163 175 182 180 180 172 170 163 162 168 172 175 176 179 185 188 186 188 188 171 169 161 150 156 162 160 150 131 122 104
229 233 242 247 218 178 193 187 197 211 227 248 235 227 255 282 251 213 198 169 180 178 183 188 186 172 172 167 176 168 177 179 180 190 196 199 189 195 211 181 191 178 177 171 181 162 146 144 124
211 239 243 250 260 170 187 206 225 219 228 222 214 191 237 259 252 227 211 196 181 187 184 185 192 192 185 176 179 172 174 182 184 195 200 203 201 199 211 210 203 200 189 182 196 181 167 168 157
228 235 242 239 226 170 173 186 228 216 220 199 215 209 204 232 242 231 220 217 195 192 191 189 195 199 199 188 191 180 182 179 187 201 209 218 214 209 211 214 225 208 207 188 195 208 186 180 188
218 233 273 163 174 212 183 189 210 181 209 208 198 225 222 227 229 235 229 224 213 205 200 197 198 199 206 201 198 199 191 191 190 202 214 229 235 226 224 222 228 223 213 197 200 212 202 202 194
232 233 238 228 221 205 200 215 202 177 223 229 229 233 224 230 238 233 225 232 228 218 217 215 208 203 206 206 207 212 204 206 202 206 219 230 241 238 235 225 225 227 221 202 199 215 214 205 211
228 241 215 236 230 202 205 212 210 208 216 226 225 223 222 217 216 220 225 226 226 221 227 224 226 221 216 216 210 215 212 212 217 217 223 231 244 248 244 239 230 237 232 217 210 210 222 214 211
230 231 231 241 243 225 203 189 238 217 225 233 230 217 224 223 211 198 218 225 219 220 236 237 231 228 224 218 222 215 221 215 216 225 224 229 237 254 249 246 241 235 235 223 220 215 219 222 215
216 211 221 218 225 234 208 230 230 233 231 234 236 219 218 218 223 220 215 212 205 205 226 253 241 234 228 227 225 222 224 228 219 223 227 233 236 245 253 259 252 239 235 229 227 222 221 226 222
208 197 223 235 236 245 199 229 220 237 235 238 238 229 218 215 223 223 227 208 206 207 209 215 233 237 232 226 229 226 220 227 224 227 225 231 242 244 249 253 254 248 240 233 234 231 230 232 229
223 231 236 234 237 241 225 218 240 240 231 237 237 236 222 216 221 224 223 221 208 208 212 218 236 236 237 230 229 233 230 231 230 230 228 229 237 243 248 254 246 245 245 236 232 234 237 235 234
234 239 225 216 252 221 220 220 237 235 236 236 238 236 230 219 218 219 221 223 220 214 214 217 217 229 226 227 228 225 236 234 235 235 230 230 228 243 247 248 242 241 241 237 235 233 235 238 239
280 221 236 238 246 240 234 233 231 226 230 234 237 238 233 229 223 224 223 221 224 221 222 225 224 229 242 236 231 231 225 234 238 236 237 237 235 230 243 248 246 242 242 240 237 238 235 236 236
277 231 244 237 268 284 238 230 249 237 228 236 242 241 240 238 233 229 230 224 225 225 226 227 223 226 220 234 238 235 221 232 234 236 245 241 240 242 240 247 246 243 246 245 240 239 239 239 242
289 256 245 259 262 284 253 253 248 241 223 234 241 247 246 245 242 238 236 231 228 229 228 230 227 224 222 224 227 239 242 229 225 273 234 245 236 238 242 247 250 249 250 250 249 246 244 245 246
267 263 265 269 279 283 263 258 240 229 228 237 246 249 251 250 248 245 243 240 235 234 231 230 231 229 227 230 229 232 243 256 253 244 244 232 234 244 245 248 254 254 253 256 253 249 246 246 246
277 254 296 285 286 282 213 278 288 207 212 209 277 246 249 251 252 250 246 246 243 240 238 233 232 234 232 232 227 230 229 232 240 246 251 258 250 246 246 247 249 255 256 256 251 247 246 244 245
295 292 283 275 272 274 261 248 261 205 215 218 295 273 256 253 255 255 253 250 246 244 244 242 236 235 236 235 230 230 239 238 248 239 243 250 257 253 251 255 249 252 253 251 251 247 247 249 248
305 305 283 268 265 259 256 250 250 199 210 230 262 281 277 268 261 260 261 258 254 249 245 244 243 238 236 237 238 233 232 230 235 245 243 249 244 254 242 247 256 252 257 255 247 246 247 249 249
328 309 278 221 219 248 215 255 174 240 246 252 272 283 282 280 273 265 263 262 261 258 253 248 243 242 238 238 237 238 241 249 224 244 251 248 247 248 259 246 254 253 254 258 251 244 243 242 244
314 312 307 298 301 323 163 252 210 253 264 272 277 280 283 284 282 275 268 265 263 260 260 257 252 243 240 239 240 241 243 245 260 233 248 247 245 242 254 246 241 241 243 250 247 244 244 247 248
295 288 297 288 275 262 260 237 210 245 265 278 287 287 286 285 283 283 276 268 265 267 261 259 257 252 242 239 238 236 238 237 240 241 245 251 244 253 256 248 245 245 242 241 244 244 240 248 246
338 291 286 238 273 268 271 293 119 246 293 293 290 287 284 283 284 281 274 270 267 269 266 261 257 255 250 241 239 234 230 233 238 242 245 251 254 246 252 256 248 250 244 238 243 246 243 252 244
350 305 294 285 281 290 291 288 326 313 308 309 309 307 299 302 293 285 279 273 268 267 262 255 255 255 250 247 239 239 238 234 235 236 243 246 251 252 252 238 250 279 265 268 244 239 243 250 258
285 296 304 287 293 291 296 288 296 318 310 316 314 307 301 305 301 297 288 279 272 267 260 252 248 253 250 245 239 236 234 239 230 235 239 250 256 264 244 266 282 249 267 257 260 267 242 240 273